Humidity-temperature Sensor

Selected Measurement Type: Air Temperature

 
Air Temperature [°C]     6 entries per hour
Showing data from 3/6/2022 (00:00:00 Z) to 3/5/2022 (00:01:00 Z)
Previous Next [ Day | 3-Days | 7-Days ]
First Last
Prev [ Day | 3-Days | 7-Days ] Next
First Last

Start Time:     :
End Time:     :     
Time (in GMT) :00 :50 :40 :30 :20 :10
Previous Next [ Day | 3-Days | 7-Days ]
First Last
Prev [ Day | 3-Days | 7-Days ] Next
First Last


123 => good data
MM => data is determined as missing
-- => data not received/configured
Back to Top Back to Top
3/6/2022 00:00 to 23:10 24.81 24.80 24.78 24.71 24.69 24.69
3/5/2022 23:00 to 22:10 24.77 24.63 24.62 24.69 24.75 24.75
3/5/2022 22:00 to 21:10 24.81 24.72 24.74 24.67 24.75 24.70
3/5/2022 21:00 to 20:10 24.71 24.67 24.72 24.65 24.65 24.71
3/5/2022 20:00 to 19:10 24.66 24.64 24.73 24.73 24.69 24.79
3/5/2022 19:00 to 18:10 24.78 24.73 24.71 24.70 24.78 24.84
3/5/2022 18:00 to 17:10 24.76 24.75 24.82 24.78 24.73 24.73
3/5/2022 17:00 to 16:10 24.83 24.86 24.80 24.83 24.82 24.81
3/5/2022 16:00 to 15:10 24.78 24.77 24.77 24.69 24.47 24.64
3/5/2022 15:00 to 14:10 24.54 24.42 24.43 24.39 24.42 24.31
3/5/2022 14:00 to 13:10 24.43 24.31 24.39 24.31 24.39 24.39
3/5/2022 13:00 to 12:10 24.34 24.32 24.41 24.33 24.40 24.38
3/5/2022 12:00 to 11:10 24.37 24.41 24.30 24.37 24.38 24.37
3/5/2022 11:00 to 10:10 24.45 24.46 24.42 24.36 24.49 24.50
3/5/2022 10:00 to 9:10 24.46 24.50 24.53 24.49 24.49 24.52
3/5/2022 09:00 to 8:10 24.58 24.62 24.56 24.59 24.60 24.62
3/5/2022 08:00 to 7:10 24.56 24.65 24.71 24.66 24.72 24.79
3/5/2022 07:00 to 6:10 24.72 24.68 24.73 24.74 24.74 24.73
3/5/2022 06:00 to 5:10 24.78 24.77 24.73 24.81 24.75 24.76
3/5/2022 05:00 to 4:10 24.72 24.77 24.75 24.79 24.76 24.67
3/5/2022 04:00 to 3:10 24.72 24.68 24.67 24.67 24.66 24.78
3/5/2022 03:00 to 2:10 24.72 24.82 24.75 24.82 24.73 24.75
3/5/2022 02:00 to 1:10 24.82 24.87 24.88 25.01 24.95 24.98
3/5/2022 01:00 to 0:10 25.06 24.92 24.86 24.89 24.86 24.94